• In Hungary
  • List of Countries
  • For 7 days
  • Water Temperature
  • Satellite Maps
  • Weather Map
  • News
  • Weather Widgets
  • user-avatar
    Login

    Hourly Weather Kendelen

    Today, 19 October, Friday

    Time Temperature Precipitation Wind Pressure Humidity
    00:00 +12°C° 0 mm 2 mps 681 mmHg 82%
    01:00 +12°C° 0 mm 2 mps 681 mmHg 81%
    02:00 +12°C° 0 mm 2 mps 681 mmHg 81%
    03:00 +10°C° 0 mm 2 mps 681 mmHg 80%
    04:00 +10°C° 0 mm 2 mps 681 mmHg 79%
    05:00 +10°C° 0 mm 2 mps 681 mmHg 79%
    06:00 +10°C° 0 mm 2 mps 681 mmHg 78%
    07:00 +13°C° 0 mm 1 mps 681 mmHg 72%
    08:00 +14°C° 0 mm 1 mps 681 mmHg 66%
    09:00 +16°C° 0 mm 1 mps 682 mmHg 61%
    10:00 +17°C° 0 mm 2 mps 682 mmHg 58%
    11:00 +18°C° 0 mm 2 mps 682 mmHg 56%
    12:00 +19°C° 0 mm 2 mps 682 mmHg 53%
    13:00 +19°C° 0 mm 2 mps 682 mmHg 54%
    14:00 +19°C° 0 mm 2 mps 681 mmHg 56%
    15:00 +19°C° 0 mm 2 mps 681 mmHg 57%
    16:00 +17°C° 0 mm 2 mps 681 mmHg 65%
    17:00 +15°C° 0 mm 1 mps 681 mmHg 74%
    18:00 +13°C° 0 mm 1 mps 680 mmHg 82%
    19:00 +13°C° 0 mm 1 mps 680 mmHg 80%
    20:00 +13°C° 0 mm 1 mps 680 mmHg 78%
    21:00 +13°C° 0 mm 1 mps 680 mmHg 77%
    22:00 +13°C° 0 mm 1 mps 680 mmHg 75%
    23:00 +12°C° 0 mm 1 mps 680 mmHg 73%

    Tomorrow, 20 October, Saturday

    Time Temperature Precipitation Wind Pressure Humidity
    00:00 +12°C° 0 mm 2 mps 680 mmHg 71%
    01:00 +12°C° 0 mm 2 mps 680 mmHg 68%
    02:00 +12°C° 0 mm 2 mps 680 mmHg 65%
    03:00 +12°C° 0 mm 2 mps 679 mmHg 61%
    04:00 +12°C° 0 mm 2 mps 679 mmHg 58%
    05:00 +12°C° 0 mm 2 mps 679 mmHg 55%
    06:00 +12°C° 0 mm 2 mps 679 mmHg 52%
    07:00 +14°C° 0 mm 1 mps 680 mmHg 48%
    08:00 +16°C° 0 mm 1 mps 680 mmHg 44%
    09:00 +17°C° 0 mm 0 mps 681 mmHg 40%
    10:00 +20°C° 0 mm 1 mps 681 mmHg 38%
    11:00 +21°C° 0 mm 1 mps 681 mmHg 36%
    12:00 +21°C° 0 mm 2 mps 681 mmHg 34%
    13:00 +21°C° 0 mm 2 mps 680 mmHg 36%
    14:00 +20°C° 0 mm 2 mps 680 mmHg 38%
    15:00 +20°C° 0 mm 2 mps 680 mmHg 40%
    16:00 +18°C° 0 mm 2 mps 680 mmHg 49%
    17:00 +16°C° 0 mm 1 mps 679 mmHg 57%
    18:00 +14°C° 0 mm 1 mps 679 mmHg 66%
    19:00 +14°C° 0 mm 1 mps 679 mmHg 64%
    20:00 +14°C° 0 mm 1 mps 679 mmHg 63%
    21:00 +13°C° 0 mm 1 mps 679 mmHg 62%
    22:00 +13°C° 0 mm 1 mps 679 mmHg 60%
    23:00 +13°C° 0 mm 1 mps 679 mmHg 58%

    Day after tomorrow, 21 October, Sunday

    Time Temperature Precipitation Wind Pressure Humidity
    00:00 +13°C° 0 mm 1 mps 678 mmHg 56%
    01:00 +13°C° 0 mm 1 mps 678 mmHg 55%
    02:00 +13°C° 0 mm 1 mps 678 mmHg 53%
    03:00 +13°C° 0 mm 1 mps 678 mmHg 52%
    04:00 +12°C° 0 mm 1 mps 678 mmHg 52%
    05:00 +12°C° 0 mm 1 mps 678 mmHg 52%
    06:00 +12°C° 0 mm 1 mps 678 mmHg 51%
    07:00 +14°C° 0 mm 1 mps 678 mmHg 49%
    08:00 +15°C° 0 mm 1 mps 679 mmHg 46%
    09:00 +18°C° 0 mm 1 mps 679 mmHg 44%
    10:00 +19°C° 0 mm 1 mps 679 mmHg 44%
    11:00 +18°C° 0 mm 2 mps 679 mmHg 43%
    12:00 +19°C° 0 mm 2 mps 679 mmHg 43%
    13:00 +19°C° 0 mm 2 mps 679 mmHg 46%
    14:00 +19°C° 0 mm 2 mps 678 mmHg 48%
    15:00 +19°C° 0 mm 2 mps 678 mmHg 50%
    16:00 +17°C° 0 mm 2 mps 678 mmHg 57%
    17:00 +16°C° 0 mm 2 mps 678 mmHg 63%
    18:00 +14°C° 0 mm 1 mps 678 mmHg 70%
    19:00 +14°C° 0 mm 1 mps 678 mmHg 71%
    20:00 +13°C° 0 mm 1 mps 678 mmHg 71%
    21:00 +13°C° 0 mm 1 mps 678 mmHg 72%
    22:00 +13°C° 0 mm 1 mps 677 mmHg 73%
    23:00 +12°C° 0 mm 1 mps 677 mmHg 73%

    22 October, Monday

    Time Temperature Precipitation Wind Pressure Humidity
    00:00 +12°C° 0 mm 1 mps 677 mmHg 74%
    01:00 +12°C° 0 mm 1 mps 677 mmHg 74%
    02:00 +12°C° 0 mm 1 mps 677 mmHg 75%
    03:00 +12°C° 0 mm 1 mps 677 mmHg 75%
    04:00 +12°C° 0 mm 1 mps 677 mmHg 75%
    05:00 +12°C° 0 mm 1 mps 677 mmHg 76%
    06:00 +11°C° 0 mm 1 mps 677 mmHg 76%
    07:00 +13°C° 0 mm 1 mps 677 mmHg 73%
    08:00 +14°C° 0 mm 1 mps 678 mmHg 71%
    09:00 +15°C° 0 mm 1 mps 678 mmHg 68%
    10:00 +16°C° 0 mm 1 mps 678 mmHg 67%
    11:00 +16°C° 0 mm 2 mps 679 mmHg 66%
    12:00 +17°C° 0 mm 2 mps 679 mmHg 64%
    13:00 +17°C° 0.1 mm 2 mps 679 mmHg 68%
    14:00 +16°C° 0.1 mm 2 mps 679 mmHg 71%
    15:00 +16°C° 0.1 mm 2 mps 678 mmHg 74%
    16:00 +15°C° 0.1 mm 1 mps 678 mmHg 80%
    17:00 +14°C° 0.1 mm 1 mps 678 mmHg 85%
    18:00 +12°C° 0.1 mm 1 mps 678 mmHg 91%
    19:00 +12°C° 0 mm 1 mps 678 mmHg 89%
    20:00 +12°C° 0 mm 1 mps 678 mmHg 87%
    21:00 +11°C° 0 mm 1 mps 679 mmHg 86%
    22:00 +11°C° 0 mm 1 mps 678 mmHg 83%
    23:00 +11°C° 0 mm 1 mps 678 mmHg 80%

    23 October, Tuesday

    Time Temperature Precipitation Wind Pressure Humidity
    00:00 +11°C° 0 mm 1 mps 678 mmHg 77%
    01:00 +11°C° 0 mm 1 mps 678 mmHg 74%
    02:00 +11°C° 0 mm 1 mps 678 mmHg 70%
    03:00 +11°C° 0 mm 1 mps 678 mmHg 67%
    04:00 +11°C° 0 mm 1 mps 678 mmHg 64%
    05:00 +11°C° 0 mm 1 mps 678 mmHg 62%
    06:00 +11°C° 0 mm 1 mps 678 mmHg 60%
    07:00 +12°C° 0 mm 1 mps 678 mmHg 57%
    08:00 +14°C° 0 mm 1 mps 679 mmHg 54%
    09:00 +16°C° 0 mm 1 mps 679 mmHg 51%
    10:00 +17°C° 0 mm 2 mps 679 mmHg 51%
    11:00 +17°C° 0 mm 2 mps 679 mmHg 52%
    12:00 +18°C° 0 mm 2 mps 679 mmHg 52%
    13:00 +18°C° 0 mm 2 mps 678 mmHg 54%
    14:00 +18°C° 0 mm 2 mps 678 mmHg 56%
    15:00 +18°C° 0 mm 3 mps 678 mmHg 58%
    16:00 +17°C° 0 mm 2 mps 678 mmHg 65%
    17:00 +15°C° 0 mm 2 mps 678 mmHg 72%
    18:00 +14°C° 0 mm 1 mps 678 mmHg 79%
    19:00 +14°C° 0 mm 1 mps 678 mmHg 78%
    20:00 +13°C° 0 mm 1 mps 678 mmHg 77%
    21:00 +13°C° 0 mm 2 mps 678 mmHg 75%
    22:00 +13°C° 0 mm 2 mps 677 mmHg 73%
    23:00 +12°C° 0 mm 2 mps 677 mmHg 71%

    24 October, Wednesday

    Time Temperature Precipitation Wind Pressure Humidity
    00:00 +12°C° 0 mm 2 mps 677 mmHg 69%
    01:00 +12°C° 0 mm 2 mps 677 mmHg 67%
    02:00 +12°C° 0 mm 2 mps 677 mmHg 65%
    03:00 +12°C° 0 mm 2 mps 677 mmHg 63%
    04:00 +10°C° 0 mm 2 mps 677 mmHg 61%
    05:00 +10°C° 0 mm 2 mps 677 mmHg 60%
    06:00 +10°C° 0 mm 2 mps 677 mmHg 58%
    07:00 +13°C° 0 mm 1 mps 677 mmHg 55%
    08:00 +14°C° 0 mm 1 mps 677 mmHg 51%
    09:00 +16°C° 0 mm 1 mps 677 mmHg 47%
    10:00 +18°C° 0 mm 1 mps 677 mmHg 47%
    11:00 +18°C° 0 mm 2 mps 676 mmHg 47%
    12:00 +19°C° 0 mm 2 mps 676 mmHg 47%
    13:00 +19°C° 0 mm 3 mps 675 mmHg 48%
    14:00 +19°C° 0 mm 3 mps 675 mmHg 48%
    15:00 +19°C° 0 mm 3 mps 674 mmHg 49%
    16:00 +17°C° 0 mm 3 mps 674 mmHg 54%
    17:00 +16°C° 0 mm 3 mps 673 mmHg 59%
    18:00 +14°C° 0 mm 2 mps 673 mmHg 64%
    19:00 +13°C° 0 mm 3 mps 672 mmHg 61%
    20:00 +12°C° 0 mm 3 mps 672 mmHg 58%
    21:00 +12°C° 0 mm 3 mps 671 mmHg 55%
    22:00 +12°C° 0 mm 3 mps 671 mmHg 55%
    23:00 +12°C° 0 mm 3 mps 671 mmHg 54%
    Show more